Date,TemperatureHighF,TemperatureAvgF,TemperatureLowF,DewpointHighF,DewpointAvgF,DewpointLowF,HumidityHigh,HumidityAvg,HumidityLow,PressureMaxIn,PressureMinIn,WindSpeedMaxMPH,WindSpeedAvgMPH,GustSpeedMaxMPH,PrecipitationSumIn
2013-3-1,56,53,51,50,49,47,94,85,77,30.32,30.24,10,5,22,0.04
2013-3-2,56,48,36,47,43,33,95,83,71,30.24,30.03,9,3,21,0.43
2013-3-3,49,38,29,43,35,27,97,88,63,30.29,30.17,6,1,12,0.23
2013-3-4,54,40,25,40,29,24,96,70,37,30.28,29.90,5,1,14,0.01
2013-3-5,54,46,41,39,32,24,88,60,43,29.92,29.70,5,1,12,0.00
2013-3-6,43,40,35,41,38,33,95,92,87,29.87,29.56,4,1,10,0.54
2013-3-7,48,40,32,45,38,30,95,93,84,30.07,29.87,4,0,10,0.54
2013-3-8,54,38,29,47,35,28,97,88,67,30.22,30.06,6,1,12,0.01
2013-3-9,57,40,29,46,34,27,96,83,53,30.47,30.22,3,0,8,0.01
2013-3-10,49,40,31,41,37,29,96,88,67,30.48,30.40,3,0,9,0.01
2013-3-11,55,45,35,44,40,34,96,83,55,30.42,30.14,5,1,10,0.02
2013-3-12,54,51,46,49,47,43,94,86,74,30.14,30.03,9,3,23,0.38
2013-3-13,52,51,50,49,48,47,94,90,85,30.16,30.06,7,3,22,0.50
2013-3-14,52,50,48,49,47,43,96,89,80,30.12,29.99,6,2,15,0.06
2013-3-15,58,52,48,50,47,45,92,84,70,30.18,30.10,4,2,12,0.01
2013-3-16,51,44,33,46,40,31,95,87,73,30.10,29.86,9,2,25,0.40
2013-3-17,49,40,36,39,36,34,95,86,59,30.17,29.94,4,1,12,0.35
2013-3-18,53,42,33,42,35,31,94,78,48,30.22,30.08,8,2,17,0.17
2013-3-19,56,41,30,40,34,28,96,78,38,30.22,29.59,7,1,18,0.22
2013-3-20,52,44,33,47,40,31,94,87,64,29.98,29.37,11,4,30,1.25
2013-3-21,46,38,33,42,35,30,95,88,75,30.19,29.98,7,1,13,0.49
2013-3-22,48,37,29,37,32,27,95,83,46,30.36,30.19,5,1,9,0.61
2013-3-23,54,38,27,37,30,26,96,76,42,30.38,30.28,3,0,9,0.01
2013-3-24,59,39,26,39,30,25,96,74,33,30.29,30.09,5,0,9,0.01
2013-3-25,65,45,27,40,33,25,95,67,32,30.11,29.91,5,1,11,0.00
2013-3-26,64,47,35,46,38,32,92,72,41,29.99,29.93,5,1,10,0.00
2013-3-27,58,47,38,48,41,36,94,82,60,29.97,29.91,4,0,7,0.00
2013-3-28,65,50,36,52,43,34,96,80,52,30.12,29.96,5,1,8,0.00
2013-3-29,67,50,35,51,43,33,97,79,50,30.22,30.11,5,1,11,0.01
2013-3-30,67,50,33,51,42,-100,96,79,55,30.24,30.05,6,2,12,0.01
2013-3-31,70,53,34,51,43,32,96,72,44,30.05,29.88,6,2,10,0.00